Philip, SD

4:20 PM MDT on May 27, 2018 (GMT -0600)
Philip

Weather History for KPHP - January, 2012

Change the Weather History Date:

Saturday, January 28, 2012

  Actual Average Record
Temperature  
Mean Temperature 29 °F 23 °F  
Max Temperature 41 °F 36 °F 61 °F (1989)
Min Temperature 17 °F 10 °F -29 °F (1972)
Degree Days  
Heating Degree Days 36 42  
Month to date heating degree days 1056 1205  
Since 1 July heating degree days 3544 4140  
Cooling Degree Days 0 0  
Month to date cooling degree days 0 0  
Year to date cooling degree days 0 0  
Moisture  
Dew Point 10 °F    
Average Humidity 51    
Maximum Humidity 74    
Minimum Humidity 27    
Precipitation  
Precipitation 0.00 in 0.01 in 0.14 in (2003)
Month to date precipitation 0.21 0.28  
Year to date precipitation 0.21 0.28  
Sea Level Pressure  
Sea Level Pressure 30.18 in    
Wind  
Wind Speed 14 mph (WNW)    
Max Wind Speed 33 mph    
Max Gust Speed 43 mph    
Visibility 10 miles    
Events      
T = Trace of Precipitation, MM = Missing Value Source: NWS Daily Summary

Daily Weather History Graph

Daily Weather History Graph

Search for Another Location

Airport or City:

Astronomy

Jan. 28, 2012 Rise Set
Actual Time 7:08 AM MST 4:50 PM MST
Civil Twilight 6:37 AM MST 5:21 PM MST
Nautical Twilight 6:02 AM MST 5:56 PM MST
Astronomical Twilight 5:28 AM MST 6:30 PM MST
Moon 9:17 AM MST (1/28) 10:56 PM MST (1/28)
Length of Visible Light 10h 44m
Length of Day
9h 41m
Waxing Crescent, 28% of the Moon is Illuminated
Jan 28
Waxing Crescent
Jan 30
First Quarter
Feb 7
Full
Feb 14
Last Quarter
Feb 21
New

Hourly Weather History & Observations

Time (MST) Temp. Windchill Dew Point Humidity Pressure Visibility Wind Dir Wind Speed Gust Speed Precip Events Conditions
12:55 AM 19.9 °F 9.3 °F 10.9 °F 68% 30.18 in 10.0 mi WSW 9.2 mph - N/A   Clear
1:55 AM 21.0 °F 8.6 °F 12.0 °F 68% 30.17 in 10.0 mi WSW 12.7 mph - N/A   Scattered Clouds
2:55 AM 21.0 °F 10.6 °F 10.9 °F 65% 30.15 in 10.0 mi West 9.2 mph - N/A   Clear
3:55 AM 18.0 °F 11.1 °F 10.0 °F 71% 30.15 in 10.0 mi West 4.6 mph - N/A   Clear
4:55 AM 19.0 °F 9.0 °F 9.0 °F 65% 30.16 in 10.0 mi West 8.1 mph - N/A   Clear
5:55 AM 21.9 °F 11.0 °F 10.9 °F 63% 30.17 in 10.0 mi WNW 10.4 mph - N/A   Clear
6:55 AM 27.0 °F 15.2 °F 12.0 °F 53% 30.19 in 10.0 mi WNW 15.0 mph - N/A   Clear
7:55 AM 25.0 °F 13.6 °F 12.0 °F 58% 30.20 in 10.0 mi WNW 12.7 mph 17.3 mph N/A   Clear
8:55 AM 32.0 °F 19.2 °F 12.0 °F 44% 30.19 in 10.0 mi WNW 23.0 mph 27.6 mph N/A   Clear
9:55 AM 37.0 °F 25.4 °F 10.0 °F 33% 30.20 in 10.0 mi WNW 25.3 mph 35.7 mph N/A   Clear
10:55 AM 39.0 °F 27.2 °F 9.0 °F 29% 30.20 in 10.0 mi WNW 29.9 mph 40.3 mph N/A   Clear
11:55 AM 39.0 °F 28.5 °F 8.1 °F 28% 30.18 in 10.0 mi WNW 23.0 mph 33.4 mph N/A   Clear
12:55 PM 39.9 °F 29.0 °F 8.1 °F 27% 30.17 in 10.0 mi WNW 26.5 mph 38.0 mph N/A   Clear
1:55 PM 39.9 °F 30.2 °F 9.0 °F 28% 30.16 in 10.0 mi NW 20.7 mph 33.4 mph N/A   Clear
2:55 PM 39.0 °F 28.5 °F 9.0 °F 29% 30.17 in 10.0 mi WNW 23.0 mph 29.9 mph N/A   Clear
3:55 PM 39.9 °F 29.0 °F 8.1 °F 27% 30.16 in 10.0 mi WNW 26.5 mph 32.2 mph N/A   Clear
4:55 PM 36.0 °F 26.7 °F 10.0 °F 34% 30.16 in 10.0 mi WNW 15.0 mph - N/A   Clear
5:55 PM 32.0 °F 24.8 °F 10.0 °F 40% 30.17 in 10.0 mi West 8.1 mph - N/A   Clear
6:55 PM 28.0 °F 19.3 °F 10.0 °F 47% 30.17 in 10.0 mi West 9.2 mph - N/A   Clear
7:55 PM 25.0 °F 17.1 °F 10.0 °F 53% 30.18 in 10.0 mi West 6.9 mph - N/A   Clear
8:55 PM 21.0 °F 12.4 °F 10.0 °F 63% 30.18 in 10.0 mi WSW 6.9 mph - N/A   Clear
9:55 PM 21.0 °F 9.9 °F 10.9 °F 65% 30.19 in 10.0 mi West 10.4 mph - N/A   Clear
10:55 PM 19.0 °F 10.0 °F 10.0 °F 68% 30.19 in 10.0 mi West 6.9 mph - N/A   Clear
11:55 PM 21.0 °F - 12.0 °F 68% 30.18 in 10.0 mi Calm Calm - N/A   Overcast